STARLINK-1475, 45739

Orbit data source: Space-Track

STARLINK-1475, 45739 is a payload satellite owned by SpaceX/Seattle (US) in LEO that was launched on Sat, 13 Jun 2020 UTC via an FALCON 9 launch vehicle from the Air Force Eastern Test Range (AFETR). Payload-class satellites include a variety of spacecraft equipped with specific instruments for various scientific and technological missions. These include communications satellites like Starlink; space stations such as the ISS; scientific satellites like the Hubble; Earth observation satellites from companies like Planet Labs, Umbra, and HawkEye 360; GPS; miniature CubeSats for education and research; and military/defense satellites.

Not visible in the next 10 days
Identifier
45739, 2020-038K
Orbit
LEO
Country
Flag of USUS
Related business
Manufacturer
SpaceX/Seattle
Mission
Partially operational Commercial Communications
Bus & Motor
STARLINK, Unknown motor
Mass
260 kg wet, ~248 kg dry
Launch date (UTC)
2020-06-13 (5 years ago)
Launch vehicle
FALCON 9
Launch site
Air Force Eastern Test Range (AFETR)
Object type
Payload
Rocket body
Debris
Shape & HBR
Box + 1 Pan, 10.1 m
Radar Cross Section
13.562 m², Large (>1 m²)

Expand to show TLE details & history
Last TLE update: 18 hours ago

TLE from 18 hours ago
0 STARLINK-1475
1 45739U 20038K   25342.91056087  .00985665  59798-3  90832-3 0  9998
2 45739  53.0363 124.8215 0005073 321.7450  38.3223 16.11824860304757
Epoch: 2025-12-08T21:51Z
TLE epoch observation values (Epoch: 2025-12-08T21:51:12.459Z)
Latitude
-0.00007°
Longitude
79.11672°
Altitude
240.125 km
Speed
7.766 km/s
True Right ascension
08h 19m 17s
True Declination
0° 00' 00"
Sunlit
Object was in full shadow at epoch
Visualization orbit readout
Latitude
Unknown
Longitude
Unknown
Altitude
Unknown
Speed
Unknown
Apparent Right ascension
Unknown
Apparent Declination
Unknown
Sunlit
N/A
Visualization observer readout
Local Sidereal Time
14:05:15
Azimuth
Unknown
Elevation
Unknown
Doppler factor
Unknown
Orbital elements
Apogee altitude
245.486 km
Perigee altitude
238.769 km
Semi-major axis
6,620.265 km
Eccentricity
0.00051
Inclination
53.0363°
RAAN
124.8215°
Arg. of periapsis
321.745°
True anomaly
38.35836°
Mean anomaly
38.3223°
Eccentric anomaly
38.34033°
Mean motion
4.0293 °/min
Orbital period
89.35 mins
BSTAR
0.00090832
Loading maneuver chart data...
Computing Atmospheric mass density...

Documentation

Showing up to 5 results
|